Time,TemperatureF,DewpointF,PressureIn,WindDirection,WindDirectionDegrees,WindSpeedMPH,WindSpeedGustMPH,Humidity,HourlyPrecipIn,Conditions,Clouds,dailyrainin,SoftwareType,DateUTC
2013-04-05 00:02:00,46.0,33.0,30.05,NNE,13,3.0,9.0,60,0.00,,,0.00,,2013-04-05 05:02:00,
2013-04-05 00:12:00,46.0,33.0,30.05,NNE,13,3.0,9.0,60,0.00,,,0.00,,2013-04-05 05:12:00,
2013-04-05 00:22:00,46.0,33.0,30.05,NNW,346,2.0,5.0,60,0.00,,,0.00,,2013-04-05 05:22:00,
2013-04-05 00:32:00,45.0,32.0,30.06,North,355,3.0,6.0,60,0.00,,,0.00,,2013-04-05 05:32:00,
2013-04-05 00:42:00,45.0,32.0,30.06,North,355,3.0,6.0,60,0.00,,,0.00,,2013-04-05 05:42:00,
2013-04-05 00:52:00,45.0,32.0,30.06,North,355,3.0,5.0,60,0.00,,,0.00,,2013-04-05 05:52:00,
2013-04-05 01:02:00,45.0,32.0,30.06,North,5,3.0,5.0,60,0.00,,,0.00,,2013-04-05 06:02:00,
2013-04-05 01:12:00,45.0,32.0,30.06,North,5,3.0,5.0,60,0.00,,,0.00,,2013-04-05 06:12:00,
2013-04-05 01:22:00,44.0,31.0,30.06,North,9,2.0,5.0,60,0.00,,,0.00,,2013-04-05 06:22:00,
2013-04-05 01:32:00,44.0,31.0,30.06,North,9,3.0,6.0,59,0.00,,,0.00,,2013-04-05 06:32:00,
2013-04-05 01:42:00,44.0,31.0,30.06,North,9,3.0,6.0,59,0.00,,,0.00,,2013-04-05 06:42:00,
2013-04-05 01:52:00,44.0,31.0,30.07,North,351,2.0,5.0,59,0.00,,,0.00,,2013-04-05 06:52:00,
2013-04-05 02:02:00,44.0,31.0,30.07,North,5,1.0,4.0,59,0.00,,,0.00,,2013-04-05 07:02:00,
2013-04-05 02:12:00,44.0,31.0,30.07,North,5,1.0,4.0,59,0.00,,,0.00,,2013-04-05 07:12:00,
2013-04-05 02:22:00,43.0,30.0,30.07,North,351,1.0,4.0,60,0.00,,,0.00,,2013-04-05 07:22:00,
2013-04-05 02:32:00,42.0,30.0,30.07,North,5,3.0,5.0,61,0.00,,,0.00,,2013-04-05 07:32:00,
2013-04-05 02:42:00,42.0,30.0,30.07,North,5,3.0,5.0,61,0.00,,,0.00,,2013-04-05 07:42:00,
2013-04-05 02:52:00,42.0,30.0,30.07,North,360,2.0,6.0,62,0.00,,,0.00,,2013-04-05 07:52:00,
2013-04-05 03:02:00,42.0,30.0,30.08,North,5,2.0,5.0,62,0.00,,,0.00,,2013-04-05 08:02:00,
2013-04-05 03:12:00,42.0,30.0,30.08,North,5,2.0,5.0,62,0.00,,,0.00,,2013-04-05 08:12:00,
2013-04-05 03:22:00,41.0,29.0,30.08,NNW,343,2.0,5.0,61,0.00,,,0.00,,2013-04-05 08:22:00,
2013-04-05 03:32:00,41.0,29.0,30.08,North,5,0.0,5.0,62,0.00,,,0.00,,2013-04-05 08:32:00,
2013-04-05 03:42:00,41.0,29.0,30.08,North,5,0.0,5.0,62,0.00,,,0.00,,2013-04-05 08:42:00,
2013-04-05 03:52:00,41.0,29.0,30.09,NNW,343,2.0,4.0,61,0.00,,,0.00,,2013-04-05 08:52:00,
2013-04-05 04:02:00,40.0,28.0,30.10,NNW,340,0.0,2.0,62,0.00,,,0.00,,2013-04-05 09:02:00,
2013-04-05 04:12:00,40.0,28.0,30.10,NNW,340,0.0,2.0,62,0.00,,,0.00,,2013-04-05 09:12:00,
2013-04-05 04:22:00,40.0,28.0,30.10,NNW,340,0.0,1.0,63,0.00,,,0.00,,2013-04-05 09:22:00,
2013-04-05 04:33:00,39.0,29.0,30.10,NNW,340,0.0,1.0,66,0.00,,,0.00,,2013-04-05 09:33:00,
2013-04-05 04:42:00,39.0,29.0,30.10,NNW,340,0.0,1.0,66,0.00,,,0.00,,2013-04-05 09:42:00,
2013-04-05 04:52:00,38.0,28.0,30.11,NNW,340,0.0,1.0,68,0.00,,,0.00,,2013-04-05 09:52:00,
2013-04-05 05:02:00,37.0,27.0,30.11,NNW,340,0.0,0.0,68,0.00,,,0.00,,2013-04-05 10:02:00,
2013-04-05 05:13:00,37.0,27.0,30.11,NNW,340,0.0,0.0,68,0.00,,,0.00,,2013-04-05 10:13:00,
2013-04-05 05:23:00,37.0,27.0,30.11,NNW,340,0.0,0.0,68,0.00,,,0.00,,2013-04-05 10:23:00,
2013-04-05 05:32:00,37.0,28.0,30.12,NNW,340,0.0,0.0,69,0.00,,,0.00,,2013-04-05 10:32:00,
2013-04-05 05:42:00,37.0,28.0,30.12,NNW,340,0.0,0.0,69,0.00,,,0.00,,2013-04-05 10:42:00,
2013-04-05 05:52:00,36.0,27.0,30.13,NNW,340,0.0,0.0,70,0.00,,,0.00,,2013-04-05 10:52:00,
2013-04-05 06:02:00,36.0,27.0,30.14,NNW,340,0.0,2.0,69,0.00,,,0.00,,2013-04-05 11:02:00,
2013-04-05 06:12:00,36.0,27.0,30.14,NNW,340,0.0,2.0,69,0.00,,,0.00,,2013-04-05 11:12:00,
2013-04-05 06:22:00,36.0,27.0,30.14,NNW,340,0.0,0.0,69,0.00,,,0.00,,2013-04-05 11:22:00,
2013-04-05 06:32:00,35.0,26.0,30.15,NNW,340,0.0,0.0,69,0.00,,,0.00,,2013-04-05 11:32:00,
2013-04-05 06:42:00,35.0,26.0,30.15,NNW,340,0.0,0.0,69,0.00,,,0.00,,2013-04-05 11:42:00,
2013-04-05 06:52:00,35.0,26.0,30.15,NNW,340,0.0,0.0,70,0.00,,,0.00,,2013-04-05 11:52:00,
2013-04-05 07:02:00,35.0,26.0,30.16,NNW,340,0.0,0.0,69,0.00,,,0.00,,2013-04-05 12:02:00,
2013-04-05 07:12:00,35.0,26.0,30.16,NNW,340,0.0,0.0,69,0.00,,,0.00,,2013-04-05 12:12:00,
2013-04-05 07:22:00,34.0,26.0,30.16,NNW,340,0.0,1.0,72,0.00,,,0.00,,2013-04-05 12:22:00,
2013-04-05 07:32:00,35.0,27.0,30.16,NNW,340,0.0,0.0,71,0.00,,,0.00,,2013-04-05 12:32:00,
2013-04-05 07:42:00,35.0,27.0,30.16,NNW,340,0.0,0.0,71,0.00,,,0.00,,2013-04-05 12:42:00,
2013-04-05 07:52:00,36.0,27.0,30.17,NNW,346,0.0,0.0,69,0.00,,,0.00,,2013-04-05 12:52:00,
2013-04-05 08:02:00,37.0,27.0,30.18,NNW,346,0.0,2.0,68,0.00,,,0.00,,2013-04-05 13:02:00,
2013-04-05 08:12:00,37.0,27.0,30.18,NNW,346,0.0,2.0,68,0.00,,,0.00,,2013-04-05 13:12:00,
2013-04-05 08:22:00,39.0,28.0,30.18,East,92,2.0,6.0,64,0.00,,,0.00,,2013-04-05 13:22:00,
2013-04-05 08:42:00,40.0,28.0,30.18,East,98,1.0,5.0,61,0.00,,,0.00,,2013-04-05 13:42:00,
2013-04-05 08:52:00,41.0,28.0,30.19,ENE,68,2.0,6.0,59,0.00,,,0.00,,2013-04-05 13:52:00,
2013-04-05 09:03:00,42.0,28.0,30.19,East,87,2.0,5.0,57,0.00,,,0.00,,2013-04-05 14:03:00,
2013-04-05 09:12:00,42.0,28.0,30.19,East,87,2.0,5.0,57,0.00,,,0.00,,2013-04-05 14:12:00,
2013-04-05 09:22:00,42.0,27.0,30.20,East,84,2.0,9.0,54,0.00,,,0.00,,2013-04-05 14:22:00,
2013-04-05 09:36:00,43.0,27.0,30.20,East,94,2.0,7.0,53,0.00,,,0.00,,2013-04-05 14:36:00,
2013-04-05 09:42:00,43.0,27.0,30.20,East,94,2.0,7.0,53,0.00,,,0.00,,2013-04-05 14:42:00,
2013-04-05 10:02:00,45.0,25.0,30.21,ENE,77,4.0,8.0,46,0.00,,,0.00,,2013-04-05 15:02:00,
2013-04-05 10:12:00,45.0,25.0,30.21,ENE,77,4.0,8.0,46,0.00,,,0.00,,2013-04-05 15:12:00,
2013-04-05 10:23:00,46.0,25.0,30.21,SE,134,5.0,8.0,43,0.00,,,0.00,,2013-04-05 15:23:00,
2013-04-05 10:33:00,48.0,27.0,30.21,SE,134,3.0,9.0,43,0.00,,,0.00,,2013-04-05 15:33:00,
2013-04-05 10:42:00,48.0,27.0,30.21,SE,134,3.0,9.0,43,0.00,,,0.00,,2013-04-05 15:42:00,
2013-04-05 10:53:00,49.0,28.0,30.21,East,91,1.0,8.0,44,0.00,,,0.00,,2013-04-05 15:53:00,
2013-04-05 11:02:00,50.0,26.0,30.21,East,82,6.0,11.0,39,0.00,,,0.00,,2013-04-05 16:02:00,
2013-04-05 11:13:00,50.0,26.0,30.21,East,82,6.0,11.0,39,0.00,,,0.00,,2013-04-05 16:13:00,
2013-04-05 11:23:00,50.0,25.0,30.20,ESE,122,4.0,7.0,38,0.00,,,0.00,,2013-04-05 16:23:00,
2013-04-05 11:33:00,51.0,26.0,30.19,ESE,117,4.0,7.0,37,0.00,,,0.00,,2013-04-05 16:33:00,
2013-04-05 11:42:00,51.0,26.0,30.19,ESE,117,4.0,7.0,37,0.00,,,0.00,,2013-04-05 16:42:00,
2013-04-05 11:52:00,52.0,26.0,30.20,ESE,102,4.0,7.0,36,0.00,,,0.00,,2013-04-05 16:52:00,
2013-04-05 12:03:00,52.0,26.0,30.19,SSE,165,5.0,12.0,36,0.00,,,0.00,,2013-04-05 17:03:00,
2013-04-05 12:13:00,52.0,26.0,30.19,SSE,165,5.0,12.0,36,0.00,,,0.00,,2013-04-05 17:13:00,
2013-04-05 12:23:00,52.0,25.0,30.19,East,98,3.0,12.0,35,0.00,,,0.00,,2013-04-05 17:23:00,
2013-04-05 12:32:00,53.0,27.0,30.18,East,83,3.0,7.0,36,0.00,,,0.00,,2013-04-05 17:32:00,
2013-04-05 12:45:00,53.0,27.0,30.18,East,83,3.0,7.0,36,0.00,,,0.00,,2013-04-05 17:45:00,
2013-04-05 12:52:00,54.0,26.0,30.17,ESE,116,3.0,7.0,33,0.00,,,0.00,,2013-04-05 17:52:00,
2013-04-05 13:02:00,54.0,25.0,30.16,East,90,3.0,8.0,32,0.00,,,0.00,,2013-04-05 18:02:00,
2013-04-05 13:12:00,54.0,25.0,30.16,East,90,3.0,8.0,32,0.00,,,0.00,,2013-04-05 18:12:00,
2013-04-05 13:22:00,54.0,24.0,30.16,SE,127,4.0,10.0,31,0.00,,,0.00,,2013-04-05 18:22:00,
2013-04-05 13:32:00,55.0,21.0,30.15,ESE,105,5.0,12.0,26,0.00,,,0.00,,2013-04-05 18:32:00,
2013-04-05 13:42:00,55.0,21.0,30.15,ESE,105,5.0,12.0,26,0.00,,,0.00,,2013-04-05 18:42:00,
2013-04-05 13:53:00,56.0,23.0,30.14,North,9,2.0,5.0,28,0.00,,,0.00,,2013-04-05 18:53:00,
2013-04-05 14:00:00,56.0,21.0,30.14,SE,132,2.0,9.0,25,0.00,,,0.00,,2013-04-05 19:00:00,
2013-04-05 14:02:00,56.0,23.0,30.14,East,94,3.0,5.0,27,0.00,,,0.00,,2013-04-05 19:02:00,
2013-04-05 14:13:00,56.0,23.0,30.14,East,94,3.0,5.0,27,0.00,,,0.00,,2013-04-05 19:13:00,
2013-04-05 14:22:00,56.0,21.0,30.14,SE,132,2.0,9.0,25,0.00,,,0.00,,2013-04-05 19:22:00,
2013-04-05 14:33:00,56.0,21.0,30.14,SE,132,2.0,9.0,25,0.00,,,0.00,,2013-04-05 19:33:00,
2013-04-05 14:42:00,56.0,21.0,30.14,SE,132,2.0,9.0,25,0.00,,,0.00,,2013-04-05 19:42:00,
2013-04-05 14:52:00,56.0,21.0,30.14,SE,132,2.0,9.0,25,0.00,,,0.00,,2013-04-05 19:52:00,
2013-04-05 15:22:00,58.0,20.0,30.11,East,86,3.0,6.0,23,0.00,,,0.00,,2013-04-05 20:22:00,
2013-04-05 15:33:00,58.0,20.0,30.11,East,86,3.0,6.0,23,0.00,,,0.00,,2013-04-05 20:33:00,
2013-04-05 15:42:00,58.0,20.0,30.11,East,86,3.0,6.0,23,0.00,,,0.00,,2013-04-05 20:42:00,
2013-04-05 15:53:00,58.0,20.0,30.10,ESE,107,0.0,4.0,23,0.00,,,0.00,,2013-04-05 20:53:00,
2013-04-05 16:02:00,58.0,17.0,30.10,ESE,121,2.0,7.0,20,0.00,,,0.00,,2013-04-05 21:02:00,
2013-04-05 16:12:00,58.0,17.0,30.10,ESE,121,2.0,7.0,20,0.00,,,0.00,,2013-04-05 21:12:00,
2013-04-05 16:23:00,58.0,20.0,30.10,East,92,4.0,7.0,23,0.00,,,0.00,,2013-04-05 21:23:00,
2013-04-05 16:33:00,56.0,19.0,30.09,SE,132,1.0,7.0,23,0.00,,,0.00,,2013-04-05 21:33:00,
2013-04-05 16:43:00,56.0,19.0,30.09,SE,132,1.0,7.0,23,0.00,,,0.00,,2013-04-05 21:43:00,
2013-04-05 16:53:00,57.0,19.0,30.09,SE,135,0.0,5.0,22,0.00,,,0.00,,2013-04-05 21:53:00,
2013-04-05 17:03:00,57.0,20.0,30.09,East,101,1.0,5.0,23,0.00,,,0.00,,2013-04-05 22:03:00,
2013-04-05 17:13:00,57.0,20.0,30.09,East,101,1.0,5.0,23,0.00,,,0.00,,2013-04-05 22:13:00,
2013-04-05 17:23:00,58.0,18.0,30.09,ESE,103,2.0,5.0,21,0.00,,,0.00,,2013-04-05 22:23:00,
2013-04-05 17:33:00,57.0,19.0,30.09,East,98,1.0,5.0,22,0.00,,,0.00,,2013-04-05 22:33:00,
2013-04-05 17:43:00,57.0,19.0,30.09,East,98,1.0,5.0,22,0.00,,,0.00,,2013-04-05 22:43:00,
2013-04-05 17:52:00,57.0,15.0,30.09,SSW,203,0.0,6.0,19,0.00,,,0.00,,2013-04-05 22:52:00,
2013-04-05 18:02:00,57.0,17.0,30.08,SE,145,2.0,6.0,21,0.00,,,0.00,,2013-04-05 23:02:00,
2013-04-05 18:12:00,57.0,17.0,30.08,SE,145,2.0,6.0,21,0.00,,,0.00,,2013-04-05 23:12:00,
2013-04-05 18:22:00,56.0,17.0,30.07,East,101,3.0,6.0,21,0.00,,,0.00,,2013-04-05 23:22:00,
2013-04-05 18:32:00,56.0,18.0,30.06,East,96,4.0,7.0,22,0.00,,,0.00,,2013-04-05 23:32:00,
2013-04-05 18:42:00,56.0,18.0,30.06,East,96,4.0,7.0,22,0.00,,,0.00,,2013-04-05 23:42:00,
2013-04-05 18:52:00,56.0,17.0,30.06,East,101,4.0,10.0,21,0.00,,,0.00,,2013-04-05 23:52:00,
2013-04-05 19:02:00,55.0,17.0,30.05,ESE,105,2.0,6.0,22,0.00,,,0.00,,2013-04-06 00:02:00,
2013-04-05 19:12:00,55.0,17.0,30.05,ESE,105,2.0,6.0,22,0.00,,,0.00,,2013-04-06 00:12:00,
2013-04-05 19:22:00,55.0,19.0,30.04,ESE,113,1.0,7.0,24,0.00,,,0.00,,2013-04-06 00:22:00,
2013-04-05 19:32:00,54.0,18.0,30.03,SE,130,1.0,4.0,24,0.00,,,0.00,,2013-04-06 00:32:00,
2013-04-05 19:42:00,54.0,18.0,30.03,SE,130,1.0,4.0,24,0.00,,,0.00,,2013-04-06 00:42:00,
2013-04-05 19:52:00,54.0,19.0,30.03,ESE,116,4.0,9.0,25,0.00,,,0.00,,2013-04-06 00:52:00,
2013-04-05 20:02:00,54.0,20.0,30.03,SE,129,3.0,8.0,26,0.00,,,0.00,,2013-04-06 01:02:00,
2013-04-05 20:12:00,53.0,21.0,30.04,ESE,105,2.0,4.0,28,0.00,,,0.00,,2013-04-06 01:12:00,
2013-04-05 20:22:00,53.0,21.0,30.04,ESE,105,2.0,4.0,28,0.00,,,0.00,,2013-04-06 01:22:00,
2013-04-05 20:32:00,53.0,21.0,30.03,SE,138,1.0,5.0,28,0.00,,,0.00,,2013-04-06 01:32:00,
2013-04-05 20:42:00,53.0,21.0,30.03,SE,138,1.0,5.0,28,0.00,,,0.00,,2013-04-06 01:42:00,
2013-04-05 20:53:00,52.0,22.0,30.03,SE,124,1.0,5.0,30,0.00,,,0.00,,2013-04-06 01:53:00,
2013-04-05 21:02:00,52.0,21.0,30.03,SE,146,4.0,9.0,29,0.00,,,0.00,,2013-04-06 02:02:00,
2013-04-05 21:12:00,52.0,21.0,30.03,SE,146,4.0,9.0,29,0.00,,,0.00,,2013-04-06 02:12:00,
2013-04-05 21:22:00,52.0,21.0,30.03,ESE,121,3.0,6.0,29,0.00,,,0.00,,2013-04-06 02:22:00,
2013-04-05 21:32:00,51.0,21.0,30.03,SE,134,2.0,8.0,30,0.00,,,0.00,,2013-04-06 02:32:00,
2013-04-05 21:42:00,51.0,21.0,30.03,SE,134,2.0,8.0,30,0.00,,,0.00,,2013-04-06 02:42:00,
2013-04-05 21:52:00,51.0,22.0,30.03,ESE,115,1.0,6.0,32,0.00,,,0.00,,2013-04-06 02:52:00,
2013-04-05 22:02:00,50.0,21.0,30.03,SE,126,1.0,7.0,32,0.00,,,0.00,,2013-04-06 03:02:00,
2013-04-05 22:12:00,50.0,21.0,30.03,SE,126,1.0,7.0,32,0.00,,,0.00,,2013-04-06 03:12:00,
2013-04-05 22:22:00,49.0,23.0,30.03,SE,138,2.0,5.0,36,0.00,,,0.00,,2013-04-06 03:22:00,
2013-04-05 22:33:00,49.0,23.0,30.03,ESE,114,5.0,14.0,36,0.00,,,0.00,,2013-04-06 03:33:00,
2013-04-05 22:42:00,49.0,23.0,30.03,ESE,114,5.0,14.0,36,0.00,,,0.00,,2013-04-06 03:42:00,
2013-04-05 22:54:00,49.0,23.0,30.03,SE,142,6.0,17.0,35,0.00,,,0.00,,2013-04-06 03:54:00,
2013-04-05 23:03:00,48.0,21.0,30.03,SE,134,6.0,10.0,34,0.00,,,0.00,,2013-04-06 04:03:00,
2013-04-05 23:13:00,48.0,21.0,30.03,SE,134,6.0,10.0,34,0.00,,,0.00,,2013-04-06 04:13:00,
2013-04-05 23:23:00,47.0,20.0,30.02,SE,140,7.0,12.0,34,0.00,,,0.00,,2013-04-06 04:23:00,
2013-04-05 23:32:00,46.0,21.0,30.03,SE,142,7.0,15.0,36,0.00,,,0.00,,2013-04-06 04:32:00,
2013-04-05 23:42:00,46.0,21.0,30.03,SE,142,7.0,15.0,36,0.00,,,0.00,,2013-04-06 04:42:00,
2013-04-05 23:53:00,45.0,20.0,30.03,ESE,118,6.0,15.0,36,0.00,,,0.00,,2013-04-06 04:53:00,